Погода Корнесты

Погода Корнесты : погода сейчас, прогноз погоды и архив. Всё, что Вы хотите узнать о погоде Корнесты!

Поиск расширенной информации на нашем сайте:

Другие новости

Новости СМИ2

Главная страница сайта

Новости сайта

03.07.2017

Напоминаем, что на нашем специализированном сайте Метеоцентр.Азия вы можете получить высокодетализированные автоматические прогнозы погоды по пунктам России, СНГ и мира в авиационном формате (включающие направление и скорость ветра, видимость, явления погоды, количество и форму облачности, нижнюю и верхнюю границу облачности).

Рекомендуем: Натуральная косметика Пулана по низким ценам в Украине!

Погода Корнесты - сегодня

Время (UTC), дата Ветер
(°,м/с) 
Видим.   Явления Облачность Т
(°С)
Тd
(°С)
f(%) Тe
(°С)
Pmin
(гПа)
dP
(гПа)
Po
(мм)
O2
(г/м3)
Тmin Tmax R s Состояние
почвы
00 18.11.17 120 (ЮВ) 10 км    10/0 средняя 
[Ac As]
+3.3 +2.6 95 +3  1021.9  -0.7  745  296           
03 18.11.17 110 (В) 10 км    10/0 средняя 
[Ac As]
+3.2 +2.9 98 +3  1020.9  -1  744  296           
06 18.11.17 110 (В) 2000 м  дымка  10/10 330 м 
[St]
+3.2 +3.2 100 +3  1020  -0.8  743  296  +2.9         
09 18.11.17 110 (В) 2000 м  дымка  10/10 600 м 
[Sc]
+5.9 +4.5 91 +7  1019.1  -0.6  743  292           
12 18.11.17 тихо ()   2000 м  дымка  10/10 600 м 
[Sc]
+7.2 +5 86 +7  1017.2  -1.8  742  290           
15 18.11.17 тихо ()   2000 м  дымка  10/10 600 м 
[St]
+6.4 +5.5 94 +6  1016  -1.2  741  291           
18 18.11.17 тихо ()   10 км    10/10 600 м 
[St]
+5.7 +4.7 93 +6  1015.1  -0.9  740  291    +7.5       
21 18.11.17 180 (Ю) 10 км  слаб. морось  10/10 600 м 
[St]
+5.6 +4.6 93 +6  1014.3  -0.8  739  291           
00 19.11.17 200 (Ю) 10 км  слаб. морось  10/10 600 м 
[St]
+5.6 +5.2 97 +6  1012.8  -1.5  738  291           
03 19.11.17 тихо ()   2000 м  дымка{дождь, морось}  10/10 600 м 
[Sc]
+5.2 +5.2 100 +5  1011.4  -1.4  737  291           
06 19.11.17 тихо ()   1000 м  дымка{дождь, морось}  10/10 300 м 
[St]
+5.2 +5.2 100 +5  1011.2  -0.2  737  291  +5    0.6     
09 19.11.17 тихо ()   1000 м  дымка  10/10 600 м 
[St]
+6 +6 100 +6  1011.2  0.1  737  290           
12 19.11.17 320 (СЗ) 1000 м  слаб. морось{дождь}  10/10 600 м 
[St]
+5.1 +5.1 100 +6  1011.2  -0.1  737  291           
15 19.11.17 330 (СЗ) 4000 м  дымка{морось}  9/9 600 м 
[Sc]
+4 +3.9 99 +5  1011.6  0.3  737  292           
18 19.11.17 тихо ()   4000 м  дымка{морось}  9/9 600 м 
[Sc]
+3.1 +3.1 100 +3  1012.4  0.7  738  293    +0.6  0.5     
21 19.11.17 тихо ()   10 км    10/10 600 м 
[Sc]
+2.2 +1.8 97 +2  1012.8  0.2  738  295           
00 20.11.17 тихо ()   10 км    10/10 600 м 
[Sc]
+1.9 +1.5 97 +2  1012.5  -0.3  738  295           
03 20.11.17 100 (В) 4000 м  дымка  3/3 600 м 
[Sc]
+0.6 +0.6 100 +1  1011.9  -0.7  737  296           
06 20.11.17 110 (В) 4000 м  дымка  8/0 верхняя 
[Cs]
-0.8 -0.8 100 -3  1012.1  737  298  -1.3         
09 20.11.17 260 (З) 4000 м  дымка  9/0 средняя, верхняя 
[As trans|Cs]
+5 +2 81 +6  1011.4  737  291           
12 20.11.17 310 (СЗ) 10 км    8/0 средняя, верхняя 
[As trans|Cs]
+6.3 +2.2 75 +6  1010.9  -0.4  737  290           
15 20.11.17 360 (С) 10 км    9/6 300 м верхняя 
[Sc|Cs]
+4.3 +1 79 +4  1012  0.9  738  292           
18 20.11.17 010 (С) 10 км    6/0 420 м верхняя 
[Cs]
+3.4 +0.8 83 +4  1012.9  0.8  738  294    +6.9       
21 20.11.17 330 (СЗ) 10 км    3/0 верхняя 
[Ci fib]
+1.4 +0.1 91 +1  1013.9  0.7  739  296           
00 21.11.17 320 (СЗ) 10 км    4/0 верхняя 
[Cs]
+0.7 -1.5 85 -1  1014.8  0.8  739  297           
Время (UTC), дата Ветер
(°,м/с) 
Видим.   Явления Облачность Т
(°С)
Тd
(°С)
f(%) Тe
(°С)
Pmin
(гПа)
dP
(гПа)
Po
(мм)
O2
(г/м3)
Тmin Tmax R s Состояние
почвы

Для получения пояснительной информации подведите курсор к названию столбца.

ПОГОДА Корнесты - архив

Всё, что Вы хотите узнать о погоде Корнесты - удобно и подробно!

Выберите нужную дату (начиная с 1 января 2015* года) и нажмите кнопку "Найти".
Будут отображены архивные сводки погоды по пункту Корнесты, начиная с указанной даты.


Отображать данные в формате CSV (для использования в таблицах Excel)


Внимание! Наш архив погоды предназначен исключительно для личного некоммерческого использования в познавательных целях. Если Вам необходимы официальные справки о состоянии погоды (для производственных, юридических, коммерческих и т.п. целей), обращайтесь в органы Росгидромета.

*Примечание: данная дата относится к архиву по метеостанциям СССР (Россия, СНГ, Балтия).
Архив по метеостанциям Зарубежной Европы и Азии (кроме Китая) хранится 10 дней, по другим регионам земного шара (Китай, Африка, Америка, Австралия, Океания) - 1 день.

Корнесты - район местоположения метеостанции


Название, широта, долгота, высота метеостанции:
Корнесты 47.3°ш. 28.1°д. 232 м над ур. моря [Молдавия]

Дополнительная информация

В oтличие oт бoльшинства пoгoдных сайтoв мы публикуем пoдрoбную метеoинфoрмацию в детальнoм прoфессиoнальнoм фoрмате.

Характеристики температуры и влажнoсти вoздуха измеряются на высoте 2 м в тени вдали oт зданий и деревьев.
Скoрoсть ветра измеряется на высoте 10 м (на урoвне рoста челoвека скoрoсть ветра ниже в 1.5-2 раза). Если метеoстанция нахoдится в гoрoде или в лесу, тo скoрoсть ветра занижена на 2-4 м/с пo сравнению с oткрытым местoм. Скoрoсть ветра над акватoриями крупных рек и oзёр, а также на вершинах хoлмoв на 2-5 м/с выше, чем в oбычных услoвиях.
Атмoсфернoе давление в разных тoчках местнoсти мoжет значительнo oтличаться oт давления на метеoстанции, в зависимoсти oт услoвий рельефа (при пoдъёме на 10 м давление пoнижается примернo на 1 мм рт.ст.).